FENGYUN 1C DEB

Satellite information

Favourite Embed

Satellite Type and Status

DEBRISIN ORBIT

Key statistics

Satellite FENGYUN 1C DEB at a glance.

Uptime

9555

Days in orbit

Revolutions

≈ 14.4

Per day

Orbit

SSO

Sun Synchronous Orbit

Inclination

98.9

Latest

Satellite identification and parameters

Extended collection of information and parameters for FENGYUN 1C DEB.

Object identification

Identified? True

Debris? True

Object name: FENGYUN 1C DEB

International designator: 1999-025AGM

Object number (NORAD): 30474

Object ID (CCSDS): 30474

Country: PEOPLES REPUBLIC OF CHINA (PRC)

Current information (Y/N): Y

RCS size: SMALL

Orbital parameters

Period: 100.313 minutes

Inclination: 98.9351 deg

SMA: 7151.517 km

Apoapsis: 794.208 km

Periapsis: 752.555 km

RAAN: 260.7652 deg

Eccentricy: 0.0029122

Argument of periapsis: 113.6002 deg

Mean anomaly: 9.8799 deg

Mean motion: 14.35507733 rev/day

Mean motion (dot): 0.00004383 rev/day2

B* drag term: 0.0015315 1/REarth

Two-line elements (TLE)

Creation date: July 6, 2025, 10:46 p.m.

Reference frame: TEME

Reference center: EARTH

Epoch: July 6, 2025, 4:55 p.m. UTC

TLE line 0: 0 FENGYUN 1C DEB

TLE line 1: 1 30474U 99025AGM 25187.70540052 .00004383 00000-0 15315-2 0 9994

TLE line 2: 2 30474 98.9351 260.7652 0029122 113.6002 9.8799 14.35507733952053

Live tracking on map

Real-time ground track for satellite FENGYUN 1C DEB.

In-orbit conjunctions

A list of the most updated potential collisions computed for object FENGYUN 1C DEB.

Target Orbit TCA Probability of collision Miss distance Type
CZ-6A DEB LEO 2025-03-05 03:54:14 0.0001116464 298.0 (m) DEBRIS
COSMOS 1452 LEO 2025-02-24 13:40:58 0.000111826 474.0 (m) PAYLOAD
SCOUT G-1 R/B LEO 2025-02-18 18:31:13 0.002215314 64.0 (m) ROCKET BODY

Associated space launch

Chinese polar orbiting meteorological satellite

FENGYUN 1C DEB was lifted into orbit during the mission ‘Long March 4B | Feng Yun 1C’, on board a Long March 4B space rocket.

The launch took place on May 10, 1999, 1:33 a.m. from Launch Complex 7.

For more information about the launch, click the button.

Launch to space Long March 4B | Feng Yun 1C
Long March 4B | Feng Yun 1C

Agency: N/A

Status: Launch Successful

Launch date: May 10, 1999, 1:33 a.m. UTC

Rocket: Long March 4B

Launch pad: Launch Complex 7

Location: Taiyuan Satellite Launch Center, People's Republic of China

...

Latest news about this satellite

There are no fresh news available about this satellite. Check back as we update our databases every day.


Newsletter sign-up

Weekly statistics, charts and insights to help you stay on top of the space industry.